Погода в Холодном

Россия / Магаданская область     62°42′45″N   147°54′58″E
темп.,
°C
ветер,
м/с
пор.,
м/с
влажн.,
%
обл.,
%
осадки,
мм/ч
давл.,
гПа
погр.,
м
29 июня, ср
ср2923:00+18ююз5106418 0.1 997161
02:00+14ююз447699 0.1 99859
05:00+13ююз4682100 0.1 999185
08:00+16ююз576754 0.0 999600
11:00+19юз775455 0.0 9991318
14:00+20юз795283 0.3 9981675
17:00+20зсз675494 1.1 998753
20:00+19сз9106088 1.1 1000867
30 июня, чт
чт3023:00+13ю229180 6.3 100333
02:00+10зсз11930 2.9 100411
05:00+10всв2293100 3.0 100633
08:00+11св1181100 0.0 1006350
11:00+17з1447100 0.0 10041376
14:00+20з5733100 0.0 10031882
17:00+21зсз562798 0.0 10012019
20:00+21зсз4635100 0.0 10001060
1 июля, пт
пт123:00+16зюз2250100 0.0 100011
02:00+13зюз1170100 0.0 100010
05:00+14юз11673 0.0 99911
08:00+18зюз12485 0.0 999472
11:00+21сз2339100 0.0 9972095
14:00+22сз4435100 0.0 9972253
17:00+16ссв576159 0.1 998519
20:00+15всв676589 0.2 1000808
2 июля, сб
сб223:00+14св3672100 0.3 1001277
02:00+12ссв4880100 0.5 1002480
05:00+11ссв2289100 1.7 1005191
08:00+11с3586100 0.9 1006298
11:00+17св675194 1.1 10051804
14:00+18св8843100 0.1 10052200
17:00+17всв774521 0.1 10071550
20:00+16всв784710 0.0 1008774
3 июля, вс
вс323:00+11в22685 0.0 100910
02:00+9св117611 0.0 101010
05:00+11вюв117246 0.0 101010
08:00+15ююз11545 0.0 1008451
11:00+18зюз234455 0.0 10061231
14:00+22з4534100 0.0 10042491
17:00+23з3431100 0.0 10032460
20:00+22зюз1147100 0.0 100218